Regional Weather Roundup
Issued by NWS Midland/Odessa, TX

Skip options and go directly to product.
Home | Oldest Version | Previous Version | Current Version | All | Text Only | Save Text | Print | Product List | Glossary Off

Skip product version selection by date and time.   

437
ASUS44 KMAF 240210
RWRMAF
MIDLAND AREA WEATHER ROUNDUP
NATIONAL WEATHER SERVICE MIDLAND TX
900 PM CDT WED APR 23 2014

...IN SOUTHWEST TEXAS AND SOUTHEAST NEW MEXICO...

CITY           SKY/WX    TMP DP  RH WIND       PRES   REMARKS
ALPINE         MOCLDY    74  14  10 SW8       29.87R
ANDREWS        FAIR      79  25  13 W8        29.69R
ARTESIA        CLEAR     77  18  10 SW17      29.70R
BIG SPRING     MOCLDY    82  49  32 S14       29.70R
CARLSBAD       CLEAR     77  17  10 SW9       29.69R
DRYDEN           N/A     82  57  42 SE16      29.70R
FORT STOCKTON  CLOUDY    79  26  14 NE6       29.71R
GUAD PASS      CLEAR     71  16  12 W40G48    29.82S
HOBBS          CLEAR     75  18  11 SW9       29.72R
MARFA          MOCLDY    70  16  12 W9        29.86S
MIDLAND AIRPK  MOCLDY    83  50  31 S20       29.68R
MIDLAND INTL   MOCLDY    82  53  36 S15G26    29.68R
ODESSA           N/A    N/A N/A N/A MISG      29.68R
PECOS          MOCLDY    77  36  22 W9        29.66R
PRESIDIO       FAIR      86  17   7 S6        29.71R
SEMINOLE       MOCLDY    77  22  13 SW9       29.70R
SNYDER         MOCLDY    81  45  28 S14       29.66R
WINK           MOCLDY    80  24  12 W8        29.66R
$$
...OTHER STATIONS IN TEXAS...

CITY           SKY/WX    TMP DP  RH WIND       PRES   REMARKS
ABILENE        MOCLDY    83  56  39 S21G35    29.63R
AMARILLO       CLEAR     76  13   9 S13       29.59R
AUSTIN         CLOUDY    76  63  64 SE20      29.78R
BROWNSVILLE    PTCLDY    73  68  84 SE20G28   29.83R
CORPUS CHRISTI MOCLDY    74  67  78 SE17      29.83R
DALLAS FTW     MOCLDY    79  57  46 S14       29.74R
DEL RIO        CLOUDY    75  63  66 S13       29.68R
EL PASO        PTCLDY    80  18  10 W23       29.77R
HOUSTON INT    PTCLDY    73  65  75 S9        29.86R
LUBBOCK        PTCLDY    80  22  11 SW14      29.64R
SAN ANGELO     PTCLDY    83  55  38 S15G25    29.66R
SAN ANTONIO    CLOUDY    79  63  57 SE17      29.80R
WACO           PTCLDY    77  60  55 SE15      29.75R
WICHITA FALLS  NOT AVBL
$$
...OTHER LOCATIONS IN NEW MEXICO...

CITY           SKY/WX    TMP DP  RH WIND       PRES   REMARKS
ALAMAGORDO     CLEAR     75  18  11 W18G28    29.79R
ALBUQUERQUE    CLOUDY    63  17  17 NW21G31   29.85R
CANNON AFB     CLEAR     69  13  11 SW13      29.66R
CLOVIS         CLEAR     73  18  12 SW18      29.68R
HOLLOMAN AFB   CLEAR     76  18  11 W20       29.77R
ROSWELL        CLEAR     80  12   7 W22       29.66R
RUIDOSO        PTCLDY    63  14  15 SW28G40   29.88R
SANTA FE       MOCLDY    55  16  21 NW16G29   29.86R
TRUTH OR CONSE CLEAR     72  11   9 W17G33    29.82R
TUCUMCARI      MOCLDY    77  23  13 W29G47    29.61R HAZE
$$

USA.gov is the U.S. government's official web portal to all federal, state and local government web resources and services.